METEOSAT 5 (MOP 2) 1 21140U 91015B 08284.78606759 -.00000082 00000-0 10000-3 0 5096 2 21140 010.3641 051.7224 0006805 131.9431 228.1594 00.98451071 66623 NOAA 12 1 21263U 91032A 08286.55697277 .00000013 00000-0 24566-4 0 8700 2 21263 098.7726 288.5297 0012869 141.0393 219.1714 14.25549217905114 METEOSAT 6 1 22912U 93073B 08285.85764208 -.00000007 00000-0 10000-3 0 7317 2 22912 007.7802 062.7750 0001282 185.4862 148.6341 01.00273550 52979 NOAA 14 1 23455U 94089A 08286.46557680 .00000329 00000-0 19740-3 0 3468 2 23455 098.9361 358.7135 0009693 167.5896 192.5516 14.13751357710923 HIMAWARI 5 (GMS 5) 1 23522U 95011B 08285.02791055 +.00000082 +00000-0 +10000-3 0 09637 2 23522 006.9166 065.7681 0004998 325.3034 034.7810 00.99404923049463 GOES 10 1 24786U 97019A 08286.37483168 -.00000275 00000-0 10000-3 0 5981 2 24786 003.0075 077.7449 0003716 155.2861 223.4859 01.00265328 42025 ORBVIEW 2 (SEASTAR) 1 24883U 97037A 08285.97801366 .00000023 00000-0 14607-4 0 5054 2 24883 098.3165 042.7353 0000649 265.3248 094.7857 14.59958001596228 METEOSAT 7 1 24932U 97049B 08286.81694851 .00000077 00000-0 10000-3 0 4460 2 24932 004.5822 072.6107 0000251 105.3538 195.4283 01.00265692 40703 NOAA 15 1 25338U 98030A 08286.14862347 .00000218 00000-0 11202-3 0 6571 2 25338 098.5657 275.0949 0011511 063.8016 296.4385 14.24728585541454 GOES 11 1 26352U 00022A 08285.30456495 .00000091 00000-0 10000-3 0 143 2 26352 000.1939 261.1718 0006563 320.4978 133.0793 01.00280086 30904 FENGYUN 2B 1 26382U 00032A 08283.31551637 -.00000277 +00000-0 +10000-3 0 00990 2 26382 003.7076 075.5884 0004786 171.2757 188.9917 01.00087341030356 NOAA 16 1 26536U 00055A 08286.15724699 .00000002 00000-0 26444-4 0 1313 2 26536 099.1678 277.9589 0009731 256.9126 103.0942 14.12499443415282 GOES 12 1 26871U 01031A 08286.29798686 -.00000244 00000-0 10000-3 0 7621 2 26871 000.2829 087.3931 0002592 052.0102 274.4109 01.00268075 26527 FENGYUN 1D 1 27431U 02024B 08286.43397249 -.00000185 00000-0 -82615-4 0 2894 2 27431 098.6114 280.7576 0015940 039.8126 320.4223 14.09272679329918 NOAA 17 1 27453U 02032A 08286.46505495 -.00000030 00000-0 53851-5 0 1320 2 27453 098.5225 347.6209 0012721 124.5534 235.6822 14.24008233327492 MSG 1 1 27509U 02040B 08286.78131029 .00000068 00000-0 00000+0 0 9649 2 27509 000.4999 329.2363 0000806 255.9344 087.2291 01.00271037 22510 KALPANA 1 (METSAT 1) 1 27525U 02043A 08285.79861903 -.00000074 +00000-0 +10000-3 0 06135 2 27525 000.1009 086.5219 0004387 046.7507 249.0289 01.00272315022318 INSAT 3A 1 27714U 03013A 08286.34423328 -.00000252 00000-0 10000-3 0 2976 2 27714 000.0749 089.4085 0003299 030.5135 118.7748 01.00269167 20210 FENGYUN 2C 1 28451U 04042A 08285.77237457 -.00000322 +00000-0 +00000-0 0 01940 2 28451 000.7699 078.4321 0000347 251.9957 072.6150 01.00262637014564 MTSAT-1R 1 28622U 05006A 08285.20967193 -.00000276 00000-0 10000-3 0 8237 2 28622 000.0548 025.4002 0002052 011.3372 199.0016 01.00270886 13257 NOAA 18 1 28654U 05018A 08286.46631152 .00000363 00000-0 22568-3 0 6200 2 28654 098.8768 225.9977 0014223 346.2157 013.8619 14.11200652175018 MSG 2 1 28912U 05049B 08284.00932894 -.00000002 +00000-0 +10000-3 0 04225 2 28912 000.3196 202.0792 0001439 102.3047 077.9146 01.00266782010343 MTSAT-2 1 28937U 06004A 08286.63943985 -.00000236 00000-0 10000-3 0 4755 2 28937 000.0366 262.7428 0002355 290.1545 203.9377 01.00272966 9753 FORMOSAT 3A 1 29047U 06011A 08285.72826219 -.00000203 +00000-0 -65414-4 0 07898 2 29047 071.9817 166.9315 0052973 212.9247 146.8551 14.27072164132281 FORMOSAT 3B 1 29048U 06011B 08285.76213919 +.00000389 +00000-0 +17471-3 0 08275 2 29048 071.9676 082.6196 0044765 162.5388 197.7288 14.27059129134765 FORMOSAT 3C 1 29049U 06011C 08285.84949801 .00000361 00000-0 16364-3 0 7652 2 29049 072.0208 230.1010 0037519 227.6076 132.1870 14.27072389130556 FORMOSAT 3D 1 29050U 06011D 08285.76524290 +.00001095 +00000-0 +26646-3 0 00489 2 29050 072.0086 071.5971 0051648 131.7224 228.8348 14.53951245135132 FORMOSAT 3E 1 29051U 06011E 08286.65208777 .00000372 00000-0 16522-3 0 8250 2 29051 072.0064 137.9167 0068581 092.5537 268.3436 14.27071830133250 FORMOSAT 3F 1 29052U 06011F 08286.27845970 .00000360 00000-0 16273-3 0 8442 2 29052 072.0364 199.8620 0042071 197.8617 162.1035 14.27086368131503 GOES 13 1 29155U 06018A 08286.33886837 -.00000083 00000-0 10000-3 0 4987 2 29155 000.4630 083.8640 0002262 154.1950 160.2308 01.00272289 8776 METOP-A 1 29499U 06044A 08286.48423307 .00000197 00000-0 11019-3 0 6205 2 29499 098.7102 344.0974 0001054 104.9255 255.2044 14.21488358102828 FENGYUN 2D 1 29640U 06053A 08285.72091663 -.00000196 00000-0 10000-3 0 4909 2 29640 000.9080 258.7161 0001062 022.1527 085.9431 01.00273074 6817